This demonstration page uses our WeatherBlox Daily Observations layout. Learn more.

Left ArrowRight Arrow

40.92945, -100.16068

Hourly Observations for July 23, 2020

Temp ( °F °C ) Dew Point ( °F °C ) Humidity (%) Winds ( mph kmh ) Pressure ( in mb ) Visibility ( mi km ) Precip ( " mm )
12:15 am 00:15 Clear 74 23.5 71 21.5 89 89 SE 10 17 29.88 1012 10 16.0934 0 0
12:35 am 00:35 Clear 74 23.2 71 21.5 90 90 ESE 9 15 29.89 1012 10 16.0934 0 0
12:55 am 00:55 Clear 73 23 71 21.4 91 91 ESE 10 17 29.89 1012 10 16.0934 0 0
1:15 am 01:15 Clear 73 22.9 70 21.3 91 91 ESE 8 13 29.89 1012 10 16.0934 0 0
1:35 am 01:35 Clear 73 22.7 70 21.2 91 91 SE 9 15 29.89 1012 10 16.0934 0 0
1:55 am 01:55 Clear 73 22.5 70 21.1 92 92 SE 8 13 29.89 1012 10 16.0934 0 0
2:15 am 02:15 Clear 72 22.3 70 21 92 92 SE 8 13 29.89 1012 10 16.0934 0 0
2:35 am 02:35 Clear 72 22.2 69 20.8 92 92 ESE 8 13 29.89 1012 10 16.0934 0 0
2:55 am 02:55 Clear 72 22.2 69 20.7 91 91 SE 7 11 29.89 1012 10 16.0934 0 0
3:15 am 03:15 Clear 71 21.8 69 20.6 93 93 ESE 7 11 29.91 1013 10 16.0934 0 0
3:35 am 03:35 Clear 71 21.9 69 20.5 92 92 SE 8 13 29.9 1012 10 16.0934 0 0
3:55 am 03:55 Clear 72 22.3 69 20.5 90 90 SE 9 15 29.89 1012 10 16.0934 0 0
4:15 am 04:15 Clear 72 22.4 69 20.5 89 89 SE 8 13 29.89 1012 10 16.0934 0 0
4:35 am 04:35 Clear 72 22.4 69 20.4 89 89 SSE 9 15 29.9 1013 10 16.0934 0 0
4:55 am 04:55 Clear 73 22.5 69 20.3 87 87 SSE 9 15 29.9 1013 10 16.0934 0 0
5:15 am 05:15 Clear 72 22.3 69 20.3 89 89 SSE 10 17 29.89 1012 10 16.0934 0 0
5:35 am 05:35 Clear 73 22.5 69 20.3 87 87 SE 9 15 29.89 1012 10 16.0934 0 0
5:55 am 05:55 Clear 72 22.4 69 20.3 88 88 SE 12 19 29.88 1012 10 16.0934 0 0
6:15 am 06:15 Clear 72 22.2 69 20.3 89 89 SE 9 15 29.89 1012 10 16.0934 0 0
6:35 am 06:35 Sunny 72 22 68 20.2 90 90 SE 10 17 29.9 1012 10 16.0934 0 0
6:55 am 06:55 Sunny 72 22 69 20.3 90 90 SE 9 15 29.9 1012 10 16.0934 0 0
7:15 am 07:15 Sunny 72 22 69 20.3 90 90 SSE 12 19 29.9 1012 10 16.0934 0 0
7:35 am 07:35 Sunny 72 22.1 69 20.5 91 91 SSE 12 19 29.89 1012 10 16.0934 0 0
7:55 am 07:55 Sunny 73 22.6 69 20.6 89 89 SSE 13 20 29.9 1013 10 16.0934 0 0
8:15 am 08:15 Sunny 74 23.3 69 20.8 86 86 S 16 26 29.89 1012 10 16.0934 0 0
8:35 am 08:35 Sunny 74 23.1 69 20.6 86 86 S 13 20 29.9 1012 10 16.0934 0 0
8:55 am 08:55 Sunny 75 24.1 70 20.9 82 82 S 14 22 29.89 1012 10 16.0934 0 0
9:15 am 09:15 Sunny 78 25.5 70 21.1 77 77 S 16 26 29.88 1012 10 16.0934 0 0
9:35 am 09:35 Sunny 79 26.2 70 21.2 74 74 S 16 26 29.86 1011 10 16.0934 0 0
9:55 am 09:55 Sunny 80 26.8 70 21.1 71 71 S 20 31 29.87 1011 10 16.0934 0 0
10:15 am 10:15 Sunny 82 27.6 71 21.4 69 69 S 17 28 29.86 1011 10 16.0934 0 0
10:35 am 10:35 Sunny 84 29 70 21.3 63 63 S 18 30 29.84 1010 10 16.0934 0 0
10:55 am 10:55 Sunny 85 29.5 70 21.3 61 61 S 18 30 29.83 1010 10 16.0934 0 0
11:15 am 11:15 Sunny 85 29.7 70 21.2 60 60 S 18 30 29.83 1010 10 16.0934 0 0
11:35 am 11:35 Sunny 86 30 71 21.5 60 60 S 16 26 29.83 1010 10 16.0934 0 0
11:55 am 11:55 Sunny 86 30 71 21.4 60 60 S 16 26 29.83 1010 10 16.0934 0 0
12:15 pm 12:15 Sunny 85 29.5 71 21.5 62 62 SSE 16 26 29.83 1010 10 16.0934 0 0
12:35 pm 12:35 Sunny 89 31.5 71 21.7 56 56 S 15 24 29.81 1009 10 16.0934 0 0
12:55 pm 12:55 Sunny 90 32.3 71 21.6 53 53 S 16 26 29.8 1009 10 16.0934 0 0
1:15 pm 13:15 Sunny 90 32.1 72 22.1 55 55 S 20 31 29.81 1010 10 16.0934 0 0
1:35 pm 13:35 Sunny 87 30.5 71 21.8 60 60 SSE 17 28 29.82 1010 10 16.0934 0 0
1:55 pm 13:55 Sunny 87 30.6 72 22.3 61 61 SSE 17 28 29.81 1010 10 16.0934 0 0
2:15 pm 14:15 Sunny 89 31.8 73 22.5 58 58 SSE 20 31 29.8 1009 10 16.0934 0 0
2:35 pm 14:35 Sunny 90 32.2 71 21.9 55 55 S 21 33 29.81 1010 10 16.0934 0 0
2:55 pm 14:55 Sunny 88 31 71 21.8 58 58 SSE 16 26 29.81 1010 10 16.0934 0 0
3:15 pm 15:15 Sunny 91 33 71 21.7 51 51 SSE 23 37 29.8 1009 10 16.0934 0 0
3:35 pm 15:35 Sunny 90 32.2 70 21.3 53 53 S 16 26 29.8 1009 10 16.0934 0 0
3:55 pm 15:55 Sunny 89 31.4 71 21.8 57 57 SSE 17 28 29.81 1009 10 16.0934 0 0
4:15 pm 16:15 Sunny 88 31.1 71 21.8 58 58 SSE 18 30 29.81 1009 10 16.0934 0 0
4:35 pm 16:35 Sunny 89 31.5 72 22 57 57 SSE 20 31 29.8 1009 10 16.0934 0 0
4:55 pm 16:55 Sunny 90 32.1 72 22 55 55 SSE 17 28 29.79 1009 10 16.0934 0 0
5:15 pm 17:15 Sunny 88 30.9 71 21.5 57 57 SSE 16 26 29.79 1009 10 16.0934 0 0
5:35 pm 17:35 Sunny 90 32.1 71 21.7 54 54 SSE 20 31 29.78 1009 10 16.0934 0 0
5:55 pm 17:55 Sunny 91 32.9 68 20.1 47 47 S 20 31 29.77 1008 10 16.0934 0 0
6:15 pm 18:15 Sunny 91 32.5 69 20.4 49 49 SSE 20 31 29.77 1008 10 16.0934 0 0
6:35 pm 18:35 Sunny 90 32 70 20.9 52 52 SSE 17 28 29.76 1008 10 16.0934 0 0
6:55 pm 18:55 Sunny 88 31.3 70 21.2 55 55 SSE 17 28 29.78 1008 10 16.0934 0 0
7:15 pm 19:15 Sunny 87 30.3 71 21.7 60 60 SSE 14 22 29.79 1009 10 16.0934 0 0
7:35 pm 19:35 Sunny 85 29.5 72 22.3 65 65 SSE 14 22 29.79 1009 10 16.0934 0 0
7:55 pm 19:55 Sunny 84 29.1 72 22.1 66 66 SSE 13 20 29.8 1009 10 16.0934 0 0
8:15 pm 20:15 Sunny 83 28.6 72 22 68 68 SSE 14 22 29.81 1009 10 16.0934 0 0
8:35 pm 20:35 Sunny 83 28.1 72 22 70 70 SSE 12 19 29.82 1010 10 16.0934 0 0
8:55 pm 20:55 Sunny 82 27.7 71 21.7 70 70 SSE 12 19 29.82 1010 10 16.0934 0 0
9:15 pm 21:15 Clear 82 27.5 71 21.6 70 70 SE 13 20 29.82 1010 10 16.0934 0 0
9:35 pm 21:35 Clear 81 27.2 71 21.5 71 71 SE 15 24 29.82 1010 10 16.0934 0 0
9:55 pm 21:55 Clear 81 27 70 21.3 71 71 SE 12 19 29.83 1010 10 16.0934 0 0
10:15 pm 22:15 Clear 80 26.5 71 21.7 75 75 SSE 15 24 29.85 1011 10 16.0934 0 0
10:35 pm 22:35 Clear 79 26.3 71 21.7 76 76 SSE 15 24 29.85 1011 10 16.0934 0 0
10:55 pm 22:55 Clear 79 26.2 71 21.5 75 75 SE 14 22 29.85 1011 10 16.0934 0 0
11:15 pm 23:15 Clear 79 26.2 70 21.3 74 74 SE 14 22 29.85 1011 10 16.0934 0 0
11:35 pm 23:35 Clear 79 26.2 70 21 73 73 SSE 14 22 29.86 1011 10 16.0934 0 0
11:55 pm 23:55 Clear 79 26 69 20.8 73 73 SSE 15 24 29.86 1011 10 16.0934 0 0

Powered by AerisWeather